FW8987 Weather Reports


time (UTC)temp
C
wind
direction
speed
KPH
gust
KPH
rain 1hr
cm
rain 24hr
cm
rain mn
cm
humidity
%
barometer
mb
20260505035023 1 249 4.8 11.3 0.00 1.02 0.84 98 1004.1
20260505034119 1 246 4.8 6.4 0.00 1.02 0.84 99 1003.9
20260505033034 1 250 4.8 9.7 0.00 1.02 0.84 99 1003.9
20260505032030 0 224 1.6 6.4 0.00 1.02 0.84 99 1003.9
20260505031025 0 0.0 0.0 0.00 1.02 0.84 99 1003.7
20260505030021 0 233 0.0 3.2 0.00 1.02 0.84 99 1003.7
20260505025016 0 175 0.0 1.6 0.00 1.02 0.84 99 1003.7
20260505024031 0 0.0 0.0 0.00 1.02 0.84 99 1003.6
20260505023027 0 211 0.0 3.2 0.00 1.02 0.84 99 1003.6
20260505022022 0 209 0.0 1.6 0.00 1.02 0.84 99 1003.5
20260505021017 0 193 0.0 1.6 0.00 1.02 0.84 99 1003.5
20260505020032 0 0.0 0.0 0.00 1.02 0.84 99 1003.5
20260505015027 0 0.0 0.0 0.00 1.02 0.84 99 1003.4
20260505014023 0 207 0.0 1.6 0.00 1.02 0.84 99 1003.3
20260505013018 0 0.0 0.0 0.00 1.02 0.84 99 1003.1
20260505012033 1 0.0 0.0 0.00 1.02 0.84 99 1003.2
20260505011028 1 180 0.0 1.6 0.00 1.02 0.84 99 1002.9
20260505010024 1 0.0 0.0 0.00 1.02 0.84 99 1003.1
20260505005019 1 0.0 0.0 0.03 1.02 0.84 99 1003.2
20260505004034 1 218 1.6 3.2 0.05 1.02 0.84 99 1003.2
20260505003029 1 208 0.0 1.6 0.08 1.02 0.84 99 1003.0
20260505002044 1 0.0 0.0 0.13 1.02 0.84 99 1002.9
20260505001020 1 169 0.0 1.6 0.15 1.02 0.84 99 1002.8
20260505000055 1 226 1.6 3.2 0.25 1.02 0.84 99 1003.1
20260504235031 1 233 1.6 3.2 0.33 0.99 0.81 99 1003.0
20260504234027 1 230 1.6 3.2 0.38 0.97 0.79 99 1002.9
20260504233021 1 224 3.2 4.8 0.48 0.94 0.76 99 1003.1
20260504232017 1 233 3.2 9.7 0.51 0.89 0.71 98 1003.1
20260504231032 1 255 3.2 9.7 0.56 0.86 0.69 98 1003.0
20260504230028 2 246 3.2 12.9 0.58 0.76 0.58 97 1002.8
20260504225023 2 226 3.2 4.8 0.53 0.66 0.48 97 1002.7
20260504224019 2 217 1.6 6.4 0.48 0.58 0.41 97 1002.5
20260504223114 3 223 3.2 9.7 0.38 0.46 0.28 96 1002.5
20260504222029 3 265 3.2 12.9 0.36 0.38 0.20 96 1002.6
20260504221025 4 230 3.2 12.9 0.28 0.30 0.13 95 1002.3
20260504220020 4 224 3.2 6.4 0.15 0.18 0.18 95 1002.1
20260504215035 5 174 3.2 11.3 0.10 0.13 0.13 94 1002.0
20260504214031 5 207 1.6 3.2 0.08 0.10 0.10 93 1002.0
20260504213025 6 241 3.2 11.3 0.05 0.08 0.08 90 1001.9
20260504212020 6 242 1.6 6.4 0.00 0.03 0.03 89 1001.8
20260504211016 6 223 1.6 3.2 0.00 0.03 0.03 90 1001.7
20260504210051 6 170 0.0 1.6 0.00 0.03 0.03 91 1001.4
20260504205047 6 163 1.6 6.4 0.00 0.03 0.03 88 1001.5
20260504204022 6 227 3.2 6.4 0.00 0.03 0.03 88 1001.7
20260504203018 6 64 3.2 6.4 0.00 0.03 0.03 88 1001.2
20260504202034 6 24 3.2 6.4 0.00 0.03 0.03 88 1001.3
20260504201029 6 164 3.2 4.8 0.00 0.03 0.03 87 1001.5
20260504200024 6 0.0 0.0 0.00 0.03 0.03 87 1001.7
20260504195020 6 154 1.6 3.2 0.00 0.03 0.03 86 1001.6
20260504194015 6 170 1.6 4.8 0.00 0.03 0.03 85 1001.7
20260504193031 7 138 3.2 4.8 0.00 0.03 0.03 84 1001.8
20260504192025 7 116 1.6 4.8 0.00 0.03 0.03 84 1002.0
20260504191022 7 162 1.6 3.2 0.00 0.03 0.03 82 1001.9
20260504190016 7 116 3.2 6.4 0.00 0.03 0.03 81 1002.0
20260504185032 7 150 1.6 6.4 0.00 0.03 0.03 81 1001.6
20260504184027 8 147 1.6 4.8 0.00 0.03 0.03 80 1001.4
20260504183047 8 172 1.6 3.2 0.00 0.03 0.03 80 1001.1
20260504182017 8 128 3.2 9.7 0.00 0.03 0.03 79 1001.2
20260504181032 9 135 3.2 11.3 0.00 0.03 0.03 76 1000.9
20260504180028 10 148 1.6 4.8 0.00 0.03 0.03 72 1000.8
20260504175023 11 148 1.6 6.4 0.00 0.03 0.03 66 1000.6
20260504174018 12 82 3.2 6.4 0.00 0.03 0.03 58 1000.6
20260504173033 13 161 3.2 11.3 0.00 0.03 0.03 47 1000.6
20260504172029 14 248 6.4 12.9 0.00 0.03 0.03 32 1000.3
20260504171024 13 245 4.8 12.9 0.00 0.03 0.03 33 1000.3
20260504151025 13 246 6.4 11.3 0.00 0.03 0.03 56 1000.2
20260504140536 10 213 4.8 9.7 0.03 0.03 0.03 76 1000.6
20260504130526 13 263 11.3 17.7 0.00 0.00 0.00 58 1000.3
20260504110524 11 254 14.5 27.4 0.00 0.00 0.00 69 1001.0
20260504100521 11 257 12.9 20.9 0.00 0.00 0.00 71 1001.3
20260504081526 10 202 4.8 6.4 0.00 0.00 0.00 75 1002.3
20260504080520 11 220 6.4 14.5 0.00 0.00 0.00 72 1002.4
20260504050516 6 178 1.6 4.8 0.00 0.00 0.00 93 1004.1
20260504045552 6 196 1.6 3.2 0.00 0.00 0.00 94 1004.2
20260504044528 5 193 1.6 3.2 0.00 0.00 0.00 96 1004.3
20260504043522 5 200 1.6 3.2 0.00 0.00 0.00 96 1004.5
20260504042518 5 197 1.6 3.2 0.00 0.00 0.00 97 1004.6
20260504041534 5 192 0.0 1.6 0.00 0.00 0.00 97 1004.6
20260504040549 5 0.0 0.0 0.00 0.00 0.00 97 1004.7
20260504035524 5 0.0 0.0 0.00 0.00 0.00 97 1004.9